Powrót do katalogu

ORBCOMM FM 106

AktywnyŁącznośćLEO
NORAD 40088·PAYLOAD·🇺🇸 United States

Wystrzelony Jul 14, 2014 z Cape Canaveral Space Force Station

Loading…

Następne Przeloty (najbliższe 24 godziny)

TLE

ŚwieżeSource: Space-Track

Epoka: Sep 14, 2026, 05:17 UTC

1 40088U 14040C   26257.22039090  .00000618  00000-0  13150-3 0  9994
2 40088  47.0594 176.2014 0016448  16.0674 344.0736 14.70634417650284

Śledź ORBCOMM FM 106 w czasie rzeczywistym z AllMySat

Download on the App Store